Simultaneous Nadir Overpasses (SNOs) Predictions

Prediction of SNOs between GOES-17 and NOAA-20 Satellite Orbit:

Table of predicted SNOs for the next 14.0 days since TLE Epoch: 7/8/2023
Index Date Time (GOES-17) GOES-17 Lat,Lon NOAA-20 Lat,Lon Distance(km) Time Diff (sec)
1 07/09/2023 08:40:11 -0.01,-104.73 0.77,-108.15 389.39 80
2 07/10/2023 08:18:47 -0.01,-104.73 -0.24,-103.62 126.81 80
3 07/11/2023 20:40:44 0.01,-104.72 -0.93,-108.93 479.78 80
4 07/12/2023 20:24:40 0.01,-104.73 0.07,-104.40 36.87 80
5 07/15/2023 08:27:44 -0.01,-104.75 0.08,-105.15 45.01 80
6 07/16/2023 08:06:19 -0.00,-104.75 -0.93,-100.62 471.18 80
7 07/17/2023 20:28:15 0.00,-104.74 -0.28,-105.92 135.64 80
8 07/18/2023 20:12:11 0.00,-104.74 0.73,-101.39 381.08 80
9 07/20/2023 08:33:59 -0.01,-104.77 0.43,-106.67 216.59 80
10 07/21/2023 08:12:35 -0.01,-104.77 -0.58,-102.14 299.94 80
